Vertical_Velocity
-4 -1 2 -1 -1 -1 -1 1 1 -0 -1 -1 5 1 -0 1 -3 0 -4 -18 -3 4 4 1 2 4 8 7 -3 -0 1 -1 -3 2 -12 -0 -5 16 7 -1 0 -2 -6 -3 0
-5 -0 1 -1 -1 -0 -0 -0 6 -0 -0 -2 0 2 1 1 -1 -3 -14 -8 -4 -5 -1 -3 -5 6 1 -1 7 -3 2 -9 -11 -4 -1 -4 3 0 1 2 5 -2 6 1 -1
-1 -1 1 3 5 -5 1 -1 4 5 4 4 -1 1 2 1 1 -29 15 -10 -4 -2 3 2 7 5 0 3 2 -1 -2 -5 -2 1 -7 -1 0 5 -0 -0 3 -10 -2 0 -4
-2 3 0 1 2 2 -1 6 5 -1 2 3 2 -2 1 1 -2 4 1 7 1 1 12 2 6 3 0 0 -5 3 -0 0 -6 5 -4 -0 3 3 1 1 0 0 2 0 -3
-3 -2 -3 -2 -2 2 -1 3 4 -1 -3 -0 -5 2 2 -0 -25 9 -3 8 12 12 1 -5 4 -1 -1 -2 4 3 -0 -1 3 2 3 -2 1 1 1 7 -1 1 10 2 1
2 -1 4 -3 4 -2 -2 0 -2 -1 1 -2 4 2 -1 0 2 12 -5 -4 4 13 4 6 -4 -9 -6 -2 2 -6 -2 -3 1 -0 -1 1 -1 -4 6 6 3 -6 -2 6 8
-3 -1 -2 1 -8 4 0 -1 -1 -2 -0 -1 0 -1 -2 -18 0 11 -2 3 -1 3 13 -1 -0 4 2 1 -2 0 7 1 1 1 -0 -1 -5 -2 -1 3 2 5 -1 -3 2
-4 -1 1 -1 -1 -8 -4 1 1 0 -0 2 2 -0 -9 -5 1 -4 11 5 5 1 -10 10 12 -0 9 1 3 -1 -3 -0 -1 1 0 -3 -6 -7 1 -2 -2 1 2 1 -5
-2 -0 -0 -1 -4 -4 -2 -1 -1 -3 -3 -2 -3 -5 -9 4 -4 0 -2 -0 0 1 -3 7 16 -4 8 -2 -2 2 -1 1 2 -1 -1 -3 -3 -7 1 1 -2 -2 -1 1 1
-1 -1 -1 -2 -4 -1 3 -1 -1 -5 -5 -3 -1 2 -2 -7 -4 3 4 -0 1 -4 8 9 5 -1 2 1 -7 -1 1 -0 -2 -2 2 1 -3 -1 -0 2 -4 -2 -3 -4 -2
-1 -6 3 -0 -6 -5 -5 -4 -2 -0 3 3 6 -3 -0 -7 8 4 3 -1 -2 1 0 3 1 -4 -6 -3 -0 -2 1 -1 -2 -2 0 -3 -1 -3 -3 4 2 -1 -1 0 4
6 -2 2 3 -5 -10 2 -4 5 6 -3 4 5 1 -1 -3 3 2 4 -11 2 -2 2 8 -1 -2 -1 -0 1 0 -0 -2 -2 -0 5 0 -4 -2 0 -4 -5 -4 -2 1 2
5 7 -5 0 0 -4 -2 1 -3 -3 -1 -4 -5 -4 -4 0 2 -2 8 -2 0 2 0 -2 -2 0 -1 2 3 -0 -2 -1 -4 0 -1 -1 -2 2 -5 3 6 4 3 2 -1
-1 3 -0 -1 4 -2 1 -1 0 3 -3 2 1 -2 -1 -0 0 0 8 -4 1 -4 -1 -2 1 -2 0 -1 -2 1 -2 1 -0 -3 -4 -4 -6 -0 -1 0 1 1 -0 2 1
2 9 -2 -4 -0 -2 -4 -4 -0 -1 -7 -11 -1 -7 5 2 3 11 -1 -2 -2 1 -0 5 1 1 -1 -0 -1 -7 2 -2 -1 -1 -2 0 -2 -13 2 2 -0 0 1 1 2
-2 -3 6 -2 -1 1 -1 -4 -3 -16 -5 -7 -1 1 -1 1 1 3 2 3 2 -5 -3 2 0 -2 2 1 0 1 -2 -3 -1 -2 -2 -4 -5 -7 -2 -13 1 2 3 0 -0
-3 1 -2 2 -1 1 -4 -2 -12 -9 -6 -7 -0 -2 -0 0 2 -0 0 -1 -3 -5 -1 -2 -0 -1 -0 -3 -3 -3 4 -1 -2 -2 -7 -0 4 -15 -2 -1 -4 -3 2 1 2
8 3 1 2 1 -0 -2 -5 -14 1 0 -4 0 2 1 -2 3 -0 -0 -0 -2 -3 -1 -3 -4 0 0 -1 -6 -3 1 -7 -5 -2 -4 -1 -4 -17 -2 -0 1 -1 -4 1 2
-4 -2 0 -0 0 3 -0 -8 -6 -2 -1 2 -4 -1 0 1 -8 -2 -0 -0 -1 -1 -6 -2 2 1 1 0 -10 -1 2 -5 -3 -1 -4 -4 -5 -7 -1 3 4 2 3 2 1
-8 0 -1 6 4 1 -8 -3 -1 -2 1 2 2 -0 0 1 -0 -1 -1 -1 -1 -1 -1 2 -1 0 1 1 1 4 1 -5 -3 -2 -0 -2 -1 -5 2 2 2 3 1 2 2
-1 -2 3 -1 3 -2 -4 -1 -0 -1 0 2 0 0 0 -0 -0 1 2 0 0 -1 1 -1 -5 6 2 -0 -3 3 2 1 -3 -3 -4 -1 -8 -4 -5 -4 -2 -0 -1 -1 -1
-3 -5 4 0 -9 1 -1 -2 1 -1 1 -1 2 1 1 0 0 -1 -2 -1 1 1 -0 0 -3 -1 -2 -1 -3 -2 -2 -1 -4 -2 -1 -4 -12 0 -1 -1 -2 -0 -0 1 1
-2 -2 1 0 -4 -2 -2 -1 -0 -1 0 -1 0 1 -0 0 -3 -1 0 -1 0 -1 -2 -2 -1 -1 -3 -9 0 1 0 -1 0 -2 -2 -4 -10 -0 1 1 3 -3 1 -0 -0
-4 -6 -6 1 6 0 0 -2 -1 1 -1 -0 0 -0 0 -0 -0 -1 0 1 -0 -1 -0 -1 -0 -5 -9 -7 -4 1 1 0 -3 -2 -2 -4 -0 1 2 -0 2 1 -0 -0 -1
-3 1 2 -4 -5 -0 0 1 -0 -1 0 1 -1 0 0 1 1 0 0 1 -0 -1 -0 -4 -2 -0 -0 -0 -0 -1 -1 0 -1 -3 -6 -4 -1 -4 -4 -3 -5 -4 4 3 1
-1 -1 -2 -2 -0 1 -2 -2 1 -1 1 -3 1 -1 1 0 0 -0 -3 -1 -5 2 0 -0 -2 -1 -2 0 0 0 -0 0 -0 0 1 0 -3 -2 -1 6 3 -3 -0 0 1
-0 6 2 -1 -2 -1 2 1 -0 1 -4 -0 1 1 0 -1 1 0 2 -1 -3 -5 -0 -2 -2 -2 -2 -0 -0 -5 -9 -2 -1 0 -6 -3 -13 -0 1 1 -1 -0 0 -2 -1
Height
1500 1497 1494 1491 1488 1486 1483 1481 1481 1480 1479 1479 1479 1480 1482 1483 1485 1485 1485 1490 1493 1496 1498 1501 1504 1507 1511 1515 1517 1524 1529 1535 1530 1527 1517 1511 1518 1508 1509 1512 1515 1518 1520 1524 1529
1500 1496 1491 1487 1484 1482 1479 1478 1477 1476 1477 1476 1477 1477 1479 1480 1482 1481 1484 1485 1489 1494 1496 1497 1501 1506 1509 1512 1516 1520 1524 1523 1519 1517 1519 1523 1514 1513 1510 1512 1519 1520 1521 1524 1528
1495 1492 1488 1484 1480 1478 1476 1474 1474 1474 1474 1474 1475 1475 1476 1478 1480 1477 1478 1478 1485 1490 1494 1497 1501 1506 1509 1510 1513 1515 1516 1516 1518 1519 1526 1526 1520 1514 1511 1514 1514 1519 1520 1523 1527
1494 1489 1484 1480 1476 1474 1473 1471 1471 1472 1472 1473 1474 1474 1474 1477 1478 1473 1469 1469 1479 1486 1492 1495 1500 1504 1506 1508 1508 1510 1512 1513 1516 1521 1523 1519 1516 1513 1511 1515 1513 1517 1520 1521 1525
1492 1487 1481 1475 1472 1471 1471 1470 1470 1471 1471 1472 1473 1473 1474 1476 1472 1470 1471 1473 1478 1483 1489 1492 1496 1501 1505 1506 1508 1508 1510 1513 1514 1518 1517 1520 1515 1511 1513 1515 1515 1519 1522 1523 1525
1490 1484 1477 1472 1469 1468 1469 1469 1469 1469 1470 1471 1472 1472 1474 1476 1471 1472 1472 1474 1478 1482 1487 1490 1494 1500 1504 1504 1506 1506 1508 1511 1513 1513 1513 1514 1512 1510 1512 1515 1517 1520 1523 1524 1526
1488 1481 1474 1469 1466 1466 1467 1468 1468 1468 1469 1471 1472 1473 1474 1472 1470 1471 1474 1475 1477 1479 1484 1489 1493 1498 1499 1503 1503 1505 1509 1509 1511 1510 1511 1511 1513 1508 1510 1514 1518 1520 1522 1524 1526
1486 1480 1472 1466 1463 1465 1467 1468 1468 1468 1469 1470 1472 1473 1473 1471 1470 1470 1473 1476 1476 1478 1483 1489 1493 1497 1499 1501 1502 1507 1509 1517 1508 1508 1511 1512 1516 1505 1507 1513 1516 1518 1521 1523 1524
1487 1481 1474 1468 1466 1467 1467 1468 1469 1468 1469 1470 1472 1473 1471 1471 1470 1469 1471 1474 1477 1479 1483 1488 1493 1497 1498 1502 1509 1509 1517 1515 1509 1505 1509 1513 1515 1507 1508 1512 1514 1516 1518 1520 1522
1488 1484 1477 1472 1469 1469 1469 1469 1468 1469 1470 1470 1472 1475 1471 1471 1469 1469 1470 1473 1476 1479 1483 1487 1492 1496 1497 1500 1503 1506 1513 1511 1509 1505 1507 1511 1512 1505 1506 1508 1511 1514 1516 1518 1519
1487 1484 1481 1475 1473 1471 1469 1470 1473 1473 1474 1474 1473 1471 1470 1469 1468 1469 1470 1472 1477 1477 1478 1484 1488 1487 1489 1497 1498 1504 1510 1510 1506 1503 1507 1507 1510 1510 1508 1508 1508 1511 1513 1515 1516
1487 1483 1481 1478 1474 1471 1471 1472 1476 1480 1475 1472 1471 1470 1468 1467 1468 1470 1472 1476 1478 1478 1482 1486 1486 1490 1492 1497 1500 1501 1506 1508 1504 1500 1504 1506 1506 1507 1505 1505 1505 1507 1508 1510 1512
1486 1484 1481 1479 1474 1473 1474 1475 1474 1474 1474 1472 1470 1470 1469 1468 1469 1470 1471 1474 1473 1474 1478 1484 1485 1487 1491 1496 1501 1502 1506 1506 1504 1501 1503 1506 1511 1507 1503 1502 1501 1502 1504 1507 1508
1484 1484 1482 1479 1478 1475 1476 1476 1474 1474 1473 1472 1472 1471 1470 1469 1465 1470 1474 1476 1477 1479 1483 1484 1483 1487 1491 1496 1499 1505 1497 1499 1501 1508 1519 1507 1520 1500 1495 1497 1497 1498 1500 1502 1505
1484 1482 1481 1476 1477 1474 1477 1474 1473 1473 1469 1475 1472 1470 1471 1471 1473 1473 1476 1475 1477 1478 1482 1490 1487 1491 1496 1498 1500 1502 1493 1496 1502 1510 1510 1510 1519 1497 1489 1497 1494 1494 1496 1498 1501
1481 1480 1479 1479 1475 1474 1471 1471 1473 1484 1482 1478 1474 1471 1470 1470 1473 1474 1474 1476 1477 1481 1487 1494 1493 1496 1499 1503 1504 1502 1498 1500 1505 1511 1529 1510 1516 1500 1492 1481 1488 1490 1493 1496 1499
1480 1478 1478 1478 1478 1474 1472 1471 1480 1489 1486 1482 1476 1473 1473 1473 1473 1475 1473 1474 1479 1489 1494 1499 1501 1500 1501 1504 1505 1507 1511 1520 1523 1532 1526 1503 1511 1488 1481 1479 1481 1486 1491 1495 1498
1481 1479 1478 1476 1474 1472 1471 1474 1489 1487 1487 1480 1476 1472 1470 1469 1477 1477 1477 1479 1480 1482 1492 1504 1512 1501 1502 1502 1506 1512 1505 1518 1518 1522 1516 1504 1506 1486 1477 1475 1477 1483 1489 1494 1497
1480 1479 1478 1475 1474 1475 1474 1485 1489 1493 1488 1478 1470 1470 1468 1468 1472 1477 1477 1479 1479 1478 1486 1497 1500 1504 1503 1502 1503 1503 1506 1498 1508 1506 1522 1505 1491 1480 1478 1477 1479 1483 1487 1492 1495
1479 1478 1477 1475 1473 1470 1472 1486 1487 1482 1480 1476 1472 1466 1468 1467 1469 1471 1474 1477 1477 1477 1477 1486 1498 1499 1500 1499 1500 1500 1499 1505 1517 1513 1506 1503 1494 1488 1483 1480 1481 1484 1486 1490 1493
1480 1479 1479 1476 1475 1473 1484 1485 1478 1477 1477 1478 1474 1467 1466 1467 1465 1469 1474 1473 1471 1473 1476 1480 1484 1498 1500 1496 1495 1501 1500 1500 1498 1506 1512 1502 1492 1473 1474 1474 1477 1481 1485 1489 1492
1480 1482 1480 1478 1477 1478 1488 1481 1477 1474 1475 1475 1474 1471 1469 1466 1466 1470 1473 1471 1470 1470 1474 1475 1486 1495 1490 1491 1492 1493 1494 1492 1505 1495 1506 1515 1492 1467 1469 1474 1477 1481 1484 1487 1489
1485 1483 1483 1480 1487 1488 1483 1479 1477 1474 1473 1473 1472 1471 1469 1468 1471 1468 1471 1471 1470 1470 1472 1474 1488 1505 1495 1496 1491 1490 1487 1489 1493 1498 1502 1513 1492 1473 1472 1476 1478 1480 1483 1485 1487
1489 1490 1484 1483 1484 1480 1479 1477 1477 1476 1473 1472 1472 1471 1470 1469 1467 1470 1472 1471 1471 1470 1471 1472 1479 1485 1496 1483 1485 1490 1483 1484 1492 1503 1490 1497 1481 1478 1476 1476 1477 1478 1480 1482 1484
1491 1495 1496 1494 1484 1485 1481 1478 1476 1476 1475 1472 1471 1470 1471 1471 1469 1469 1471 1472 1472 1471 1471 1473 1481 1477 1476 1475 1477 1480 1479 1483 1491 1484 1496 1480 1478 1472 1472 1472 1473 1475 1478 1480 1481
1495 1497 1493 1491 1487 1485 1480 1477 1471 1473 1475 1473 1472 1470 1467 1469 1469 1467 1468 1471 1471 1471 1471 1473 1490 1490 1496 1477 1478 1481 1477 1477 1480 1479 1478 1479 1479 1468 1468 1470 1471 1473 1476 1477 1478
1496 1495 1496 1491 1489 1488 1487 1486 1481 1479 1472 1472 1471 1472 1468 1468 1467 1467 1466 1466 1464 1468 1471 1474 1484 1494 1494 1478 1481 1490 1469 1469 1470 1469 1468 1477 1468 1464 1466 1467 1469 1472 1473 1473 1475